Check out our new BloomSky Weather System.

Active alerts


No alerts


Thunder radar  blitzortung!


Rain radar more information rain snow radar


Visit our other weather sites:

Template documentation
and downloads

And another site



Weather Underground History page Text

Daily Summary for July 1, 2017 Units:  Metric    English   Both
« Previous Day
Next Day »
Daily Weekly Monthly Yearly Custom
  High: Low: Average:
Temperature: 35 °C 26.8 °C 30.4 °C
Dew Point: 26.4 °C 22.7 °C 24.9 °C
Humidity: 93 % 50 % 74 %
Wind Speed: 22.5 km/h 0 km/h 6.6 km/h
Wind Gust: 25.7 km/h - -
Wind:- - SSE
Pressure: 1018.8 hPa 1014.4 hPa -
Precipitation: 0 mm    
Historical Graphs
 
 
Tabular Data for July 1, 2017
Time Temperature Dew Point Pressure Wind Wind Speed Wind Gust Humidity Rainfall Rate (Hourly)
00:04 28.5 °C 26.1 °C 1015.1 hPa SSE 6.4 km/h 17.7 km/h 87 % 0 mm
00:09 28.5 °C 26.1 °C 1015.1 hPa South 8 km/h 12.9 km/h 87 % 0 mm
00:14 28.5 °C 26.3 °C 1015.5 hPa SSE 9.7 km/h 16.1 km/h 88 % 0 mm
00:19 28.5 °C 26.3 °C 1015.5 hPa South 6.4 km/h 16.1 km/h 88 % 0 mm
00:24 28.5 °C 26.3 °C 1015.5 hPa South 8 km/h 16.1 km/h 88 % 0 mm
00:29 28.5 °C 26.3 °C 1015.5 hPa South 6.4 km/h 16.1 km/h 88 % 0 mm
00:35 28.5 °C 26.3 °C 1015.5 hPa SSE 9.7 km/h 12.9 km/h 88 % 0 mm
00:40 28.5 °C 26.3 °C 1015.5 hPa South 9.7 km/h 14.5 km/h 88 % 0 mm
00:45 28.4 °C 26.2 °C 1015.5 hPa SSW 3.2 km/h 14.5 km/h 88 % 0 mm
00:50 28.4 °C 26.2 °C 1015.5 hPa SW 4.8 km/h 14.5 km/h 88 % 0 mm
00:55 28.4 °C 26.2 °C 1015.5 hPa South 11.3 km/h 11.3 km/h 88 % 0 mm
01:00 28.4 °C 26.2 °C 1015.1 hPa SSE 8 km/h 14.5 km/h 88 % 0 mm
01:05 28.4 °C 26.2 °C 1015.1 hPa SE 4.8 km/h 14.5 km/h 88 % 0 mm
01:10 28.3 °C 26.1 °C 1015.1 hPa SSE 3.2 km/h 14.5 km/h 88 % 0 mm
01:15 28.3 °C 26.1 °C 1015.1 hPa South 8 km/h 14.5 km/h 88 % 0 mm
01:20 28.2 °C 26 °C 1015.1 hPa SSE 4.8 km/h 12.9 km/h 88 % 0 mm
01:25 28.2 °C 26.2 °C 1015.1 hPa SSW 6.4 km/h 12.9 km/h 89 % 0 mm
01:30 28.1 °C 26.1 °C 1015.1 hPa SE 4.8 km/h 9.7 km/h 89 % 0 mm
01:35 28.1 °C 26.1 °C 1015.1 hPa SSW 6.4 km/h 9.7 km/h 89 % 0 mm
01:40 28.1 °C 26.1 °C 1015.1 hPa SSW 4.8 km/h 9.7 km/h 89 % 0 mm
01:45 28 °C 26 °C 1015.1 hPa SSE 4.8 km/h 16.1 km/h 89 % 0 mm
01:50 28 °C 26.2 °C 1015.1 hPa SSE 4.8 km/h 16.1 km/h 90 % 0 mm
01:55 28 °C 26.2 °C 1015.1 hPa SE 9.7 km/h 16.1 km/h 90 % 0 mm
02:00 28 °C 26.2 °C 1014.8 hPa South 3.2 km/h 16.1 km/h 90 % 0 mm
02:05 27.9 °C 26.1 °C 1014.8 hPa South 6.4 km/h 16.1 km/h 90 % 0 mm
02:10 27.9 °C 26.1 °C 1014.8 hPa SSE 9.7 km/h 17.7 km/h 90 % 0 mm
02:15 27.9 °C 26.1 °C 1014.8 hPa SSE 12.9 km/h 17.7 km/h 90 % 0 mm
02:20 27.9 °C 26.1 °C 1014.8 hPa ESE 8 km/h 17.7 km/h 90 % 0 mm
02:25 27.9 °C 26.1 °C 1014.8 hPa SE 4.8 km/h 14.5 km/h 90 % 0 mm
02:31 27.9 °C 26.1 °C 1014.8 hPa South 6.4 km/h 14.5 km/h 90 % 0 mm
02:36 27.8 °C 26 °C 1014.8 hPa SE 17.7 km/h 17.7 km/h 90 % 0 mm
02:41 27.8 °C 26 °C 1014.8 hPa SSE 6.4 km/h 17.7 km/h 90 % 0 mm
02:46 27.8 °C 26 °C 1014.8 hPa South 4.8 km/h 17.7 km/h 90 % 0 mm
02:51 27.8 °C 26 °C 1014.8 hPa SSE 4.8 km/h 17.7 km/h 90 % 0 mm
02:56 27.7 °C 25.9 °C 1014.8 hPa SW 12.9 km/h 12.9 km/h 90 % 0 mm
03:01 27.7 °C 26.1 °C 1014.8 hPa SE 4.8 km/h 12.9 km/h 91 % 0 mm
03:06 27.7 °C 26.1 °C 1014.8 hPa SSE 6.4 km/h 12.9 km/h 91 % 0 mm
03:11 27.7 °C 26.1 °C 1014.8 hPa SSE 3.2 km/h 14.5 km/h 91 % 0 mm
03:16 27.7 °C 26.1 °C 1014.4 hPa East 8 km/h 14.5 km/h 91 % 0 mm
03:21 27.7 °C 26.1 °C 1014.8 hPa ESE 11.3 km/h 14.5 km/h 91 % 0 mm
03:26 27.7 °C 26.1 °C 1014.8 hPa South 6.4 km/h 14.5 km/h 91 % 0 mm
03:31 27.6 °C 26 °C 1014.4 hPa SSW 6.4 km/h 11.3 km/h 91 % 0 mm
03:36 27.6 °C 26 °C 1014.4 hPa SE 6.4 km/h 11.3 km/h 91 % 0 mm
03:37 27.6 °C 26 °C 1014.4 hPa SSE 3.2 km/h 11.3 km/h 91 % 0 mm
03:42 27.6 °C 26 °C 1014.4 hPa SSE 8 km/h 11.3 km/h 91 % 0 mm
03:48 27.5 °C 25.9 °C 1014.4 hPa SSW 4.8 km/h 9.7 km/h 91 % 0 mm
03:53 27.5 °C 25.9 °C 1014.8 hPa ESE 4.8 km/h 11.3 km/h 91 % 0 mm
03:58 27.4 °C 25.8 °C 1014.8 hPa SSE 3.2 km/h 11.3 km/h 91 % 0 mm
04:03 27.4 °C 26 °C 1015.1 hPa SE 4.8 km/h 11.3 km/h 92 % 0 mm
04:08 27.4 °C 26 °C 1015.1 hPa ESE 1.6 km/h 9.7 km/h 92 % 0 mm
04:13 27.4 °C 26 °C 1015.5 hPa SE 1.6 km/h 8 km/h 92 % 0 mm
04:18 27.3 °C 25.9 °C 1015.5 hPa Calm   8 km/h 92 % 0 mm
04:23 27.3 °C 25.9 °C 1015.1 hPa ESE 1.6 km/h 8 km/h 92 % 0 mm
04:28 27.3 °C 25.9 °C 1015.5 hPa Calm   4.8 km/h 92 % 0 mm
04:33 27.3 °C 25.9 °C 1015.5 hPa SSE 1.6 km/h 6.4 km/h 92 % 0 mm
04:38 27.3 °C 25.9 °C 1015.5 hPa SE 3.2 km/h 6.4 km/h 92 % 0 mm
04:43 27.3 °C 25.9 °C 1015.5 hPa SE 3.2 km/h 6.4 km/h 92 % 0 mm
04:48 27.3 °C 25.9 °C 1015.5 hPa ESE 4.8 km/h 8 km/h 92 % 0 mm
04:53 27.3 °C 25.9 °C 1015.8 hPa SE 3.2 km/h 8 km/h 92 % 0 mm
04:58 27.2 °C 25.8 °C 1015.8 hPa East 3.2 km/h 8 km/h 92 % 0 mm
05:03 27.2 °C 25.8 °C 1015.8 hPa East 4.8 km/h 6.4 km/h 92 % 0 mm
05:08 27.2 °C 25.8 °C 1015.8 hPa Calm   6.4 km/h 92 % 0 mm
05:13 27.1 °C 25.7 °C 1016.1 hPa Calm   6.4 km/h 92 % 0 mm
05:18 27.1 °C 25.7 °C 1016.1 hPa Calm   6.4 km/h 92 % 0 mm
05:23 27.1 °C 25.7 °C 1016.1 hPa Calm   3.2 km/h 92 % 0 mm
05:28 27 °C 25.6 °C 1016.1 hPa Calm   1.6 km/h 92 % 0 mm
05:33 26.9 °C 25.5 °C 1016.5 hPa Calm   1.6 km/h 92 % 0 mm
05:38 26.9 °C 25.5 °C 1016.5 hPa Calm   1.6 km/h 92 % 0 mm
05:43 26.8 °C 25.6 °C 1016.5 hPa Calm   1.6 km/h 93 % 0 mm
05:48 26.8 °C 25.6 °C 1016.8 hPa Calm   1.6 km/h 93 % 0 mm
05:53 26.8 °C 25.6 °C 1016.8 hPa Calm   1.6 km/h 93 % 0 mm
05:58 26.8 °C 25.6 °C 1017.2 hPa Calm   1.6 km/h 93 % 0 mm
06:03 26.8 °C 25.6 °C 1017.2 hPa Calm   1.6 km/h 93 % 0 mm
06:08 26.8 °C 25.6 °C 1017.2 hPa ESE 3.2 km/h 3.2 km/h 93 % 0 mm
06:13 26.8 °C 25.6 °C 1017.2 hPa ESE 1.6 km/h 4.8 km/h 93 % 0 mm
06:18 26.8 °C 25.6 °C 1017.2 hPa Calm   4.8 km/h 93 % 0 mm
06:23 26.8 °C 25.6 °C 1017.2 hPa Calm   4.8 km/h 93 % 0 mm
06:28 26.8 °C 25.6 °C 1017.2 hPa Calm   3.2 km/h 93 % 0 mm
06:33 26.8 °C 25.6 °C 1017.2 hPa ESE 1.6 km/h 3.2 km/h 93 % 0 mm
06:38 26.8 °C 25.6 °C 1017.2 hPa SE 1.6 km/h 4.8 km/h 93 % 0 mm
06:43 26.8 °C 25.6 °C 1017.5 hPa Calm   4.8 km/h 93 % 0 mm
06:48 26.8 °C 25.6 °C 1017.5 hPa Calm   4.8 km/h 93 % 0 mm
06:53 26.8 °C 25.6 °C 1017.5 hPa Calm   4.8 km/h 93 % 0 mm
06:58 26.8 °C 25.6 °C 1017.5 hPa Calm   4.8 km/h 93 % 0 mm
07:03 26.8 °C 25.6 °C 1017.5 hPa Calm   1.6 km/h 93 % 0 mm
07:08 26.9 °C 25.7 °C 1017.8 hPa Calm   1.6 km/h 93 % 0 mm
07:13 26.9 °C 25.7 °C 1017.5 hPa Calm   1.6 km/h 93 % 0 mm
07:19 27 °C 25.8 °C 1017.5 hPa Calm   1.6 km/h 93 % 0 mm
07:24 27 °C 25.8 °C 1017.5 hPa Calm   1.6 km/h 93 % 0 mm
07:29 27.1 °C 25.9 °C 1017.5 hPa Calm   1.6 km/h 93 % 0 mm
07:34 27.2 °C 26 °C 1017.5 hPa Calm   3.2 km/h 93 % 0 mm
07:39 27.4 °C 26.2 °C 1017.5 hPa Calm   3.2 km/h 93 % 0 mm
07:44 27.4 °C 26 °C 1017.5 hPa East 3.2 km/h 3.2 km/h 92 % 0 mm
07:49 27.6 °C 26.2 °C 1017.5 hPa Calm   4.8 km/h 92 % 0 mm
07:54 27.7 °C 26.3 °C 1017.8 hPa East 4.8 km/h 4.8 km/h 92 % 0 mm
07:59 27.8 °C 26.4 °C 1017.8 hPa Calm   4.8 km/h 92 % 0 mm
08:04 28 °C 26.2 °C 1017.8 hPa SE 3.2 km/h 4.8 km/h 90 % 0 mm
08:05 28 °C 26.2 °C 1017.8 hPa ESE 3.2 km/h 4.8 km/h 90 % 0 mm
08:10 28.1 °C 26.1 °C 1017.8 hPa SSE 3.2 km/h 6.4 km/h 89 % 0 mm
08:15 28.2 °C 26 °C 1017.8 hPa ESE 3.2 km/h 8 km/h 88 % 0 mm
08:20 28.3 °C 25.9 °C 1017.8 hPa ESE 8 km/h 12.9 km/h 87 % 0 mm
08:25 28.3 °C 25.9 °C 1017.8 hPa ESE 6.4 km/h 12.9 km/h 87 % 0 mm
08:30 28.4 °C 25.8 °C 1018.2 hPa ESE 9.7 km/h 12.9 km/h 86 % 0 mm
08:35 28.6 °C 26 °C 1018.2 hPa SE 6.4 km/h 12.9 km/h 86 % 0 mm
08:40 28.7 °C 26.1 °C 1018.2 hPa SSE 11.3 km/h 12.9 km/h 86 % 0 mm
08:45 28.9 °C 26.3 °C 1018.2 hPa SE 9.7 km/h 12.9 km/h 86 % 0 mm
08:50 28.9 °C 26.1 °C 1018.2 hPa SE 8 km/h 12.9 km/h 85 % 0 mm
08:55 29.2 °C 26.2 °C 1018.2 hPa SE 6.4 km/h 12.9 km/h 84 % 0 mm
08:57 29.2 °C 26.2 °C 1018.2 hPa ESE 6.4 km/h 12.9 km/h 84 % 0 mm
09:01 29.3 °C 26.1 °C 1018.5 hPa ESE 12.9 km/h 12.9 km/h 83 % 0 mm
09:06 29.1 °C 25.7 °C 1018.5 hPa SSE 4.8 km/h 16.1 km/h 82 % 0 mm
09:11 29.1 °C 25.9 °C 1018.5 hPa ESE 9.7 km/h 16.1 km/h 83 % 0 mm
09:16 29.1 °C 25.7 °C 1018.5 hPa South 4.8 km/h 16.1 km/h 82 % 0 mm
09:21 29.3 °C 25.9 °C 1018.5 hPa SSE 8 km/h 14.5 km/h 82 % 0 mm
09:26 29.5 °C 26.1 °C 1018.5 hPa ESE 3.2 km/h 16.1 km/h 82 % 0 mm
09:32 29.8 °C 26 °C 1018.5 hPa SSE 8 km/h 16.1 km/h 80 % 0 mm
09:37 29.7 °C 25.7 °C 1018.8 hPa ESE 8 km/h 16.1 km/h 79 % 0 mm
09:42 29.7 °C 25.7 °C 1018.8 hPa SSE 6.4 km/h 12.9 km/h 79 % 0 mm
09:47 29.9 °C 25.6 °C 1018.8 hPa ESE 6.4 km/h 12.9 km/h 78 % 0 mm
09:52 29.9 °C 25.6 °C 1018.8 hPa SE 8 km/h 12.9 km/h 78 % 0 mm
09:57 30.2 °C 26.1 °C 1018.8 hPa Calm   11.3 km/h 79 % 0 mm
10:02 30.5 °C 26.2 °C 1018.8 hPa ESE 6.4 km/h 9.7 km/h 78 % 0 mm
10:07 30.6 °C 25.4 °C 1018.8 hPa SSW 3.2 km/h 14.5 km/h 74 % 0 mm
10:12 30.8 °C 26.1 °C 1018.8 hPa SSW 1.6 km/h 14.5 km/h 76 % 0 mm
10:17 30.9 °C 25.3 °C 1018.8 hPa SSE 6.4 km/h 14.5 km/h 72 % 0 mm
10:22 30.8 °C 25.2 °C 1018.8 hPa SSW 4.8 km/h 14.5 km/h 72 % 0 mm
10:27 30.8 °C 26.1 °C 1018.8 hPa South 1.6 km/h 14.5 km/h 76 % 0 mm
10:32 31.2 °C 25.8 °C 1018.5 hPa SE 9.7 km/h 14.5 km/h 73 % 0 mm
10:34 31.3 °C 25.4 °C 1018.5 hPa SSE 11.3 km/h 14.5 km/h 71 % 0 mm
10:39 31.2 °C 25.1 °C 1018.5 hPa SE 4.8 km/h 16.1 km/h 70 % 0 mm
10:44 31.2 °C 25.1 °C 1018.8 hPa SSE 8 km/h 16.1 km/h 70 % 0 mm
10:49 31.3 °C 25.6 °C 1018.8 hPa SW 4.8 km/h 16.1 km/h 72 % 0 mm
10:54 31.4 °C 26 °C 1018.8 hPa South 6.4 km/h 16.1 km/h 73 % 0 mm
10:59 31.6 °C 25.2 °C 1018.5 hPa SE 1.6 km/h 14.5 km/h 69 % 0 mm
11:04 31.9 °C 25.3 °C 1018.5 hPa SE 6.4 km/h 12.9 km/h 68 % 0 mm
11:09 32 °C 25.1 °C 1018.5 hPa ESE 6.4 km/h 12.9 km/h 67 % 0 mm
11:14 32 °C 25.1 °C 1018.5 hPa SE 3.2 km/h 17.7 km/h 67 % 0 mm
11:19 31.9 °C 24.8 °C 1018.5 hPa SSE 4.8 km/h 25.7 km/h 66 % 0 mm
11:24 31.8 °C 24.9 °C 1018.5 hPa South 6.4 km/h 25.7 km/h 67 % 0 mm
11:29 31.8 °C 24.7 °C 1018.5 hPa SE 14.5 km/h 25.7 km/h 66 % 0 mm
11:34 31.9 °C 24.5 °C 1018.5 hPa SSW 11.3 km/h 19.3 km/h 65 % 0 mm
11:39 32 °C 24.6 °C 1018.5 hPa SSE 9.7 km/h 17.7 km/h 65 % 0 mm
11:40 32 °C 24.6 °C 1018.5 hPa South 6.4 km/h 17.7 km/h 65 % 0 mm
11:45 32.3 °C 25.4 °C 1018.5 hPa SSW 14.5 km/h 17.7 km/h 67 % 0 mm
11:50 32.6 °C 24.9 °C 1018.5 hPa SSE 9.7 km/h 17.7 km/h 64 % 0 mm
11:55 32.7 °C 24.7 °C 1018.5 hPa SE 9.7 km/h 17.7 km/h 63 % 0 mm
12:00 32.7 °C 25 °C 1018.5 hPa SE 11.3 km/h 17.7 km/h 64 % 0 mm
12:05 32.5 °C 24.5 °C 1018.5 hPa SSE 6.4 km/h 19.3 km/h 63 % 0 mm
12:10 32.2 °C 25 °C 1018.5 hPa SW 1.6 km/h 19.3 km/h 66 % 0 mm
12:15 32.5 °C 24.8 °C 1018.5 hPa SSE 4.8 km/h 19.3 km/h 64 % 0 mm
12:20 32.7 °C 25 °C 1018.5 hPa SSW 6.4 km/h 16.1 km/h 64 % 0 mm
12:25 32.8 °C 24.6 °C 1018.5 hPa East 12.9 km/h 12.9 km/h 62 % 0 mm
12:30 32.7 °C 24.5 °C 1018.5 hPa South 8 km/h 14.5 km/h 62 % 0 mm
12:31 32.8 °C 24.6 °C 1018.5 hPa SE 6.4 km/h 14.5 km/h 62 % 0 mm
12:36 33.1 °C 24.6 °C 1018.5 hPa East 9.7 km/h 17.7 km/h 61 % 0 mm
12:41 33.3 °C 25 °C 1018.5 hPa SW 8 km/h 17.7 km/h 62 % 0 mm
12:46 33.6 °C 25 °C 1018.5 hPa SW 9.7 km/h 17.7 km/h 61 % 0 mm
12:51 33.6 °C 25.3 °C 1018.5 hPa South 8 km/h 17.7 km/h 62 % 0 mm
12:56 33.8 °C 25.8 °C 1018.5 hPa Calm   16.1 km/h 63 % 0 mm
13:01 33.9 °C 25 °C 1018.5 hPa SE 8 km/h 16.1 km/h 60 % 0 mm
13:06 33.6 °C 24.2 °C 1018.5 hPa ESE 4.8 km/h 16.1 km/h 58 % 0 mm
13:11 33.8 °C 24.9 °C 1018.5 hPa South 4.8 km/h 12.9 km/h 60 % 0 mm
13:16 34.1 °C 24.7 °C 1018.5 hPa SSE 4.8 km/h 12.9 km/h 58 % 0 mm
13:21 34.4 °C 24.9 °C 1018.5 hPa SE 9.7 km/h 12.9 km/h 58 % 0 mm
13:26 34.3 °C 24.3 °C 1018.5 hPa SSE 4.8 km/h 14.5 km/h 56 % 0 mm
13:31 34.2 °C 25 °C 1018.2 hPa South 6.4 km/h 14.5 km/h 59 % 0 mm
13:36 34.1 °C 24.1 °C 1018.2 hPa SSE 14.5 km/h 16.1 km/h 56 % 0 mm
13:41 34 °C 24 °C 1018.2 hPa Calm   16.1 km/h 56 % 0 mm
13:46 34.4 °C 23.4 °C 1018.2 hPa SE 12.9 km/h 16.1 km/h 53 % 0 mm
13:47 34.4 °C 23.7 °C 1018.2 hPa SSW 6.4 km/h 16.1 km/h 54 % 0 mm
13:52 34.3 °C 23 °C 1017.8 hPa South 4.8 km/h 16.1 km/h 52 % 0 mm
13:57 34.7 °C 24.6 °C 1017.8 hPa South 1.6 km/h 16.1 km/h 56 % 0 mm
13:58 34.7 °C 24.6 °C 1017.8 hPa WSW 1.6 km/h 16.1 km/h 56 % 0 mm
14:03 34.8 °C 23.5 °C 1017.8 hPa SW 3.2 km/h 16.1 km/h 52 % 0 mm
14:05 34.9 °C 23.6 °C 1017.8 hPa SSW 12.9 km/h 17.7 km/h 52 % 0 mm
14:10 34.8 °C 23.5 °C 1017.5 hPa SSE 8 km/h 17.7 km/h 52 % 0 mm
14:15 34.8 °C 23.5 °C 1017.5 hPa South 6.4 km/h 19.3 km/h 52 % 0 mm
14:20 34.8 °C 23.5 °C 1017.5 hPa SE 16.1 km/h 19.3 km/h 52 % 0 mm
14:25 34.8 °C 23.5 °C 1017.5 hPa SE 9.7 km/h 19.3 km/h 52 % 0 mm
14:30 34.6 °C 23.9 °C 1017.2 hPa SSW 11.3 km/h 19.3 km/h 54 % 0 mm
14:35 34.4 °C 23.4 °C 1017.2 hPa South 8 km/h 19.3 km/h 53 % 0 mm
14:45 34.5 °C 24.1 °C 1016.8 hPa SSW 16.1 km/h 20.9 km/h 55 % 0 mm
14:50 34.4 °C 24.3 °C 1016.8 hPa SSE 8 km/h 20.9 km/h 56 % 0 mm
14:55 34.4 °C 24.3 °C 1016.8 hPa South 8 km/h 20.9 km/h 56 % 0 mm
15:00 34.4 °C 24.6 °C 1016.8 hPa SE 6.4 km/h 20.9 km/h 57 % 0 mm
15:05 34.6 °C 24.5 °C 1016.5 hPa SE 6.4 km/h 20.9 km/h 56 % 0 mm
15:10 34.6 °C 23.9 °C 1016.8 hPa SE 11.3 km/h 19.3 km/h 54 % 0 mm
15:15 34.5 °C 22.9 °C 1016.8 hPa South 12.9 km/h 19.3 km/h 51 % 0 mm
15:20 34.6 °C 23.3 °C 1016.8 hPa SSW 9.7 km/h 19.3 km/h 52 % 0 mm
15:25 34.9 °C 23.6 °C 1016.5 hPa South 12.9 km/h 17.7 km/h 52 % 0 mm
15:30 34.9 °C 23.6 °C 1016.5 hPa SSW 12.9 km/h 17.7 km/h 52 % 0 mm
15:35 34.8 °C 22.8 °C 1016.1 hPa ESE 9.7 km/h 20.9 km/h 50 % 0 mm
15:40 34.9 °C 23.3 °C 1016.1 hPa SE 11.3 km/h 20.9 km/h 51 % 0 mm
15:45 34.9 °C 23.6 °C 1016.1 hPa SSW 17.7 km/h 20.9 km/h 52 % 0 mm
15:50 34.8 °C 23.5 °C 1016.1 hPa SE 14.5 km/h 20.9 km/h 52 % 0 mm
15:55 35 °C 24 °C 1015.8 hPa South 14.5 km/h 17.7 km/h 53 % 0 mm
16:00 34.8 °C 23.8 °C 1015.8 hPa East 14.5 km/h 20.9 km/h 53 % 0 mm
16:05 34.5 °C 23.5 °C 1015.8 hPa SE 12.9 km/h 20.9 km/h 53 % 0 mm
16:10 34.7 °C 23.7 °C 1015.8 hPa South 14.5 km/h 20.9 km/h 53 % 0 mm
16:15 34.5 °C 23.8 °C 1015.8 hPa SE 14.5 km/h 22.5 km/h 54 % 0 mm
16:20 34.3 °C 23.7 °C 1015.8 hPa SSE 14.5 km/h 22.5 km/h 54 % 0 mm
16:25 34.3 °C 23.7 °C 1015.8 hPa East 9.7 km/h 22.5 km/h 54 % 0 mm
16:30 34.1 °C 24.1 °C 1015.8 hPa South 11.3 km/h 20.9 km/h 56 % 0 mm
16:35 34.1 °C 23.8 °C 1015.5 hPa SE 11.3 km/h 20.9 km/h 55 % 0 mm
16:40 34.1 °C 23.8 °C 1015.8 hPa ESE 9.7 km/h 19.3 km/h 55 % 0 mm
16:45 33.9 °C 23.9 °C 1015.8 hPa SE 14.5 km/h 19.3 km/h 56 % 0 mm
16:50 34 °C 23.4 °C 1015.8 hPa SSW 11.3 km/h 19.3 km/h 54 % 0 mm
16:55 33.9 °C 24.2 °C 1015.5 hPa ENE 11.3 km/h 19.3 km/h 57 % 0 mm
17:00 34.1 °C 23.5 °C 1015.5 hPa South 8 km/h 19.3 km/h 54 % 0 mm
17:05 34.1 °C 23.5 °C 1015.5 hPa SSW 12.9 km/h 24.1 km/h 54 % 0 mm
17:10 34.1 °C 23.5 °C 1015.5 hPa SSE 12.9 km/h 24.1 km/h 54 % 0 mm
17:15 34.1 °C 23.5 °C 1015.5 hPa SSE 17.7 km/h 24.1 km/h 54 % 0 mm
17:20 34 °C 23.4 °C 1015.5 hPa SSW 6.4 km/h 20.9 km/h 54 % 0 mm
17:25 34 °C 23.4 °C 1015.5 hPa SSE 14.5 km/h 20.9 km/h 54 % 0 mm
17:30 33.9 °C 23.3 °C 1015.5 hPa SE 11.3 km/h 20.9 km/h 54 % 0 mm
17:35 33.9 °C 23.3 °C 1015.5 hPa South 4.8 km/h 20.9 km/h 54 % 0 mm
17:40 34 °C 23.1 °C 1015.8 hPa SSE 14.5 km/h 17.7 km/h 53 % 0 mm
17:45 34 °C 23.4 °C 1015.5 hPa SE 12.9 km/h 19.3 km/h 54 % 0 mm
17:51 33.9 °C 23 °C 1015.5 hPa SSW 6.4 km/h 19.3 km/h 53 % 0 mm
17:56 34 °C 23.4 °C 1015.5 hPa SSE 11.3 km/h 19.3 km/h 54 % 0 mm
18:01 33.9 °C 22.7 °C 1015.5 hPa WSW 8 km/h 20.9 km/h 52 % 0 mm
18:06 33.7 °C 22.8 °C 1015.5 hPa SE 4.8 km/h 20.9 km/h 53 % 0 mm
18:11 33.7 °C 23.4 °C 1015.8 hPa SSE 4.8 km/h 20.9 km/h 55 % 0 mm
18:16 33.7 °C 23.1 °C 1015.5 hPa SE 4.8 km/h 20.9 km/h 54 % 0 mm
18:21 33.6 °C 23 °C 1015.8 hPa SE 12.9 km/h 25.7 km/h 54 % 0 mm
18:26 33.6 °C 23 °C 1015.8 hPa ESE 8 km/h 25.7 km/h 54 % 0 mm
18:31 33.5 °C 23.2 °C 1015.8 hPa SSW 4.8 km/h 25.7 km/h 55 % 0 mm
18:36 33.4 °C 23.7 °C 1015.8 hPa South 8 km/h 17.7 km/h 57 % 0 mm
18:41 33.4 °C 23.7 °C 1015.8 hPa South 9.7 km/h 16.1 km/h 57 % 0 mm
18:46 33.3 °C 24.2 °C 1015.8 hPa SSW 14.5 km/h 19.3 km/h 59 % 0 mm
18:51 33.1 °C 24 °C 1016.1 hPa SSE 6.4 km/h 22.5 km/h 59 % 0 mm
19:01 32.8 °C 24 °C 1016.1 hPa SE 22.5 km/h 22.5 km/h 60 % 0 mm
19:06 32.5 °C 24 °C 1016.1 hPa SE 19.3 km/h 22.5 km/h 61 % 0 mm
19:11 32.2 °C 24 °C 1016.1 hPa South 6.4 km/h 22.5 km/h 62 % 0 mm
19:16 32.1 °C 23.9 °C 1016.1 hPa South 11.3 km/h 22.5 km/h 62 % 0 mm
19:20 27.4 °C 24.8 °C 1018.2 hPa SE 1.6 km/h 9.7 km/h 86 % 0 mm
19:21 31.9 °C 23.7 °C 1016.5 hPa SSE 8 km/h 19.3 km/h 62 % 0 mm
19:22 27.3 °C 24.7 °C 1018.2 hPa South 4.8 km/h 9.7 km/h 86 % 0 mm
19:23 27.3 °C 24.7 °C 1018.2 hPa South 3.2 km/h 9.7 km/h 86 % 0 mm
19:26 31.9 °C 23.7 °C 1016.5 hPa SSE 8 km/h 19.3 km/h 62 % 0 mm
19:31 31.9 °C 23.7 °C 1016.1 hPa ESE 14.5 km/h 19.3 km/h 62 % 0 mm
19:36 31.8 °C 23.3 °C 1016.5 hPa SSE 8 km/h 19.3 km/h 61 % 0 mm
19:37 31.8 °C 23.3 °C 1016.5 hPa SSE 4.8 km/h 19.3 km/h 61 % 0 mm
19:42 31.7 °C 23.5 °C 1016.5 hPa SSW 6.4 km/h 19.3 km/h 62 % 0 mm
19:47 31.4 °C 23.5 °C 1016.5 hPa SE 12.9 km/h 19.3 km/h 63 % 0 mm
19:52 31.3 °C 23.4 °C 1016.5 hPa South 9.7 km/h 19.3 km/h 63 % 0 mm
19:57 31.3 °C 23.4 °C 1016.8 hPa SSE 8 km/h 16.1 km/h 63 % 0 mm
20:02 31.2 °C 23.3 °C 1016.8 hPa SSE 4.8 km/h 17.7 km/h 63 % 0 mm
20:07 31.1 °C 23.5 °C 1016.8 hPa South 6.4 km/h 17.7 km/h 64 % 0 mm
20:12 31 °C 23.4 °C 1016.8 hPa South 4.8 km/h 17.7 km/h 64 % 0 mm
20:17 30.8 °C 23.5 °C 1016.8 hPa SSE 3.2 km/h 11.3 km/h 65 % 0 mm
20:22 30.6 °C 23.3 °C 1016.8 hPa SSW 9.7 km/h 11.3 km/h 65 % 0 mm
20:27 30.5 °C 23.2 °C 1017.2 hPa South 8 km/h 12.9 km/h 65 % 0 mm
20:32 30.4 °C 23.1 °C 1017.2 hPa SE 1.6 km/h 12.9 km/h 65 % 0 mm
20:37 30.3 °C 23.2 °C 1017.2 hPa SSW 3.2 km/h 12.9 km/h 66 % 0 mm
20:42 30.2 °C 23.4 °C 1017.2 hPa SE 3.2 km/h 9.7 km/h 67 % 0 mm
20:47 30.2 °C 23.9 °C 1017.2 hPa SE 4.8 km/h 11.3 km/h 69 % 0 mm
20:52 30.1 °C 23.8 °C 1017.2 hPa SSE 6.4 km/h 12.9 km/h 69 % 0 mm
20:57 30.1 °C 24 °C 1017.2 hPa ESE 4.8 km/h 12.9 km/h 70 % 0 mm
21:02 30 °C 23.9 °C 1017.2 hPa SSE 4.8 km/h 12.9 km/h 70 % 0 mm
21:07 29.9 °C 24.1 °C 1017.2 hPa SE 6.4 km/h 12.9 km/h 71 % 0 mm
21:12 29.8 °C 24.2 °C 1017.2 hPa South 8 km/h 12.9 km/h 72 % 0 mm
21:17 29.7 °C 24.3 °C 1017.2 hPa South 6.4 km/h 12.9 km/h 73 % 0 mm
21:22 29.7 °C 24.6 °C 1017.2 hPa ESE 9.7 km/h 12.9 km/h 74 % 0 mm
21:27 29.6 °C 24.7 °C 1017.2 hPa ESE 6.4 km/h 12.9 km/h 75 % 0 mm
21:32 29.5 °C 24.6 °C 1017.5 hPa SSE 3.2 km/h 12.9 km/h 75 % 0 mm
21:33 29.5 °C 24.8 °C 1017.5 hPa SSE 3.2 km/h 12.9 km/h 76 % 0 mm
21:38 29.4 °C 24.7 °C 1017.5 hPa SE 6.4 km/h 12.9 km/h 76 % 0 mm
21:43 29.3 °C 24.8 °C 1017.5 hPa South 6.4 km/h 12.9 km/h 77 % 0 mm
21:49 29.2 °C 24.7 °C 1017.5 hPa SE 4.8 km/h 12.9 km/h 77 % 0 mm
21:54 29.1 °C 24.9 °C 1017.5 hPa South 4.8 km/h 12.9 km/h 78 % 0 mm
21:59 29 °C 24.8 °C 1017.8 hPa SSW 8 km/h 11.3 km/h 78 % 0 mm
22:04 28.9 °C 24.7 °C 1017.8 hPa South 3.2 km/h 11.3 km/h 78 % 0 mm
22:09 28.8 °C 24.8 °C 1017.8 hPa SSE 8 km/h 11.3 km/h 79 % 0 mm
22:14 28.8 °C 24.8 °C 1017.8 hPa ESE 8 km/h 9.7 km/h 79 % 0 mm
22:19 28.7 °C 24.7 °C 1017.8 hPa South 4.8 km/h 12.9 km/h 79 % 0 mm
22:24 28.7 °C 24.9 °C 1017.8 hPa SSE 6.4 km/h 12.9 km/h 80 % 0 mm
22:29 28.6 °C 24.8 °C 1017.8 hPa SE 4.8 km/h 12.9 km/h 80 % 0 mm
22:34 28.5 °C 24.7 °C 1017.8 hPa SSE 6.4 km/h 11.3 km/h 80 % 0 mm
22:39 28.4 °C 24.8 °C 1017.8 hPa SSE 6.4 km/h 11.3 km/h 81 % 0 mm
22:44 28.3 °C 24.7 °C 1017.8 hPa SSE 3.2 km/h 11.3 km/h 81 % 0 mm
22:49 28.3 °C 24.9 °C 1018.2 hPa SE 4.8 km/h 11.3 km/h 82 % 0 mm
22:54 28.2 °C 24.8 °C 1018.2 hPa SSE 6.4 km/h 11.3 km/h 82 % 0 mm
22:59 28.2 °C 24.8 °C 1018.2 hPa SE 3.2 km/h 9.7 km/h 82 % 0 mm
23:04 28.1 °C 24.7 °C 1018.2 hPa South 3.2 km/h 9.7 km/h 82 % 0 mm
23:09 28 °C 24.8 °C 1018.2 hPa SE 1.6 km/h 9.7 km/h 83 % 0 mm
23:14 28 °C 24.8 °C 1018.2 hPa South 4.8 km/h 9.7 km/h 83 % 0 mm
23:19 27.9 °C 24.7 °C 1018.2 hPa South 4.8 km/h 9.7 km/h 83 % 0 mm
23:24 27.9 °C 24.7 °C 1018.2 hPa SSE 4.8 km/h 9.7 km/h 83 % 0 mm
23:29 27.8 °C 24.6 °C 1018.2 hPa SSW 4.8 km/h 9.7 km/h 83 % 0 mm
Spring, Texas: Villages of Bridgestone
Compliments of Weather Underground - 3.25 mb

Script developed by  Jim McMurry - jmcmurry@mwt.net Adapted for the template by  Wim van der Kuil - Leuven-Template.eu

You find our weather info also at:

UK Metoffice

WeatherCloud

Weather Underground

Mid-South Weather Network

AWEKAS

Citizen Weather Observer Program (CWOP)

HAMweather, WeatherForYou, PWS Weather

Equipment we use:

Weather-station
Davis Vantage Vue

Weather-program
Meteohub

Weather-server
Debian 7.9 x86 (Guest)

Provider
DreamHost

Davis Vantage Vue

Meteohub

Debian 7.9 x86 (Guest)

DreamHost